カタログに戻る

COSMOS 2251 DEB

運用中LEO
NORAD 34967·DEBRIS·🇷🇺 Russia

打ち上げ Jun 16, 1993 から Plesetsk Cosmodrome

Loading…

次のパス (今後24時間)

TLE

最新Source: Space-Track

元期: Sep 13, 2026, 19:54 UTC

1 34967U 93036AEW 26256.82934791  .00001123  00000-0  32488-3 0  9999
2 34967  73.9901 100.1922 0039378 183.1222 176.9696 14.45257807689307

AllMySatでCOSMOS 2251 DEBをリアルタイム追跡

Download on the App Store